Time, Mavişehir_ Yaya_IN, Mavişehir_Yaya_OUT, Mavişehir_Yaya_TOTAL, Mavişehir_Bisiklet_IN, Mavişehir_Bisiklet_OUT, Mavişehir_Bisiklet_TOTAL, Turan_ Yaya_IN, Turan_Yaya_OUT, Turan_Yaya_TOTAL, Turan_Bisiklet_IN, Turan_Bisiklet_OUT, Turan_Bisiklet_TOTAL, Pasaport_ Yaya_IN, Pasaport_Yaya_OUT, Pasaport_Yaya_TOTAL, Pasaport_Bisiklet_IN, Pasaport_Bisiklet_OUT, Pasaport_Bisiklet_TOTAL, Alsancak_ Yaya_IN, Alsancak_Yaya_OUT, Alsancak_Yaya_TOTAL, Alsancak_Bisiklet_IN, Alsancak_Bisiklet_OUT, Alsancak_Bisiklet_TOTAL, Konak_ Yaya_IN, Konak_Yaya_OUT, Konak_Yaya_TOTAL, Konak_Bisiklet_IN, Konak_Bisiklet_OUT, Konak_Bisiklet_TOTAL, Göztepe_ Yaya_IN, Göztepe_Yaya_OUT, Göztepe_Yaya_TOTAL, Göztepe_Bisiklet_IN, Göztepe_Bisiklet_OUT, Göztepe_Bisiklet_TOTAL
28-02-2018 00:00:00,160,150,310,0,0,0,979,1329,2308,0,0,0,1283,1665,2948,43,229,272,57,126,183,20,30,50,1253,607,1860,80,17,97,296,257,553,33,17,50
01-03-2018 00:00:00,329,362,691,0,0,0,879,1339,2218,0,0,0,4314,4250,8564,85,339,424,80,293,373,126,78,204,3997,3462,7459,341,171,512,766,755,1521,91,96,187
02-03-2018 00:00:00,223,253,476,0,0,0,860,1353,2213,0,0,0,4001,3594,7595,107,412,519,0,0,0,0,0,0,3330,2941,6271,312,154,466,437,549,986,66,82,148
03-03-2018 00:00:00,363,418,781,0,0,0,750,1159,1909,0,0,0,6864,6719,13583,117,500,617,0,0,0,0,0,0,5921,5539,11460,599,306,905,921,925,1846,185,181,366
04-03-2018 00:00:00,467,508,975,0,0,0,513,871,1384,0,0,0,6449,6691,13140,95,407,502,0,9,9,0,0,0,6955,7765,14720,764,338,1102,1616,1618,3234,274,250,524
05-03-2018 00:00:00,262,285,547,0,0,0,826,1103,1929,0,0,0,3538,3290,6828,100,345,445,0,0,0,25,16,41,3265,2775,6040,267,156,423,491,597,1088,73,80,153
06-03-2018 00:00:00,271,310,581,0,0,0,695,822,1517,0,0,0,3957,3766,7723,79,319,398,0,0,0,112,77,189,3579,2997,6576,339,144,483,621,616,1237,98,92,190
07-03-2018 00:00:00,227,260,487,0,0,0,762,1216,1978,0,0,0,4384,3965,8349,46,385,431,65,193,258,137,94,231,3951,3352,7303,341,179,520,656,660,1316,100,98,198
08-03-2018 00:00:00,227,224,451,0,0,0,1055,1381,2436,0,0,0,3245,3382,6627,85,430,515,139,352,491,145,88,233,3845,3461,7306,369,185,554,500,498,998,74,66,140
09-03-2018 00:00:00,316,359,675,0,0,0,1100,1458,2558,0,0,0,4825,4488,9313,82,827,909,170,415,585,235,125,360,5076,4494,9570,488,382,870,799,766,1565,146,126,272
10-03-2018 00:00:00,527,633,1160,0,0,0,520,772,1292,0,0,0,9715,9865,19580,114,775,889,163,383,546,535,320,855,8637,8620,17257,825,607,1432,1403,1261,2664,314,323,637
11-03-2018 00:00:00,1,4,5,0,0,0,200,349,549,0,0,0,6807,6006,12813,79,646,725,194,574,768,584,418,1002,9832,10696,20528,915,701,1616,2294,2209,4503,464,454,918
12-03-2018 00:00:00,381,422,803,0,0,0,599,705,1304,0,0,0,4794,4233,9027,94,733,827,618,1419,2037,234,154,388,4474,3730,8204,457,302,759,696,655,1351,127,100,227
13-03-2018 00:00:00,286,302,588,0,0,0,973,1325,2298,0,0,0,3339,2920,6259,83,429,512,784,1650,2434,113,62,175,3407,3036,6443,304,246,550,693,667,1360,83,70,153
14-03-2018 00:00:00,344,385,729,0,0,0,689,975,1664,0,0,0,4598,3669,8267,91,612,703,167,468,635,217,154,371,4196,3474,7670,391,297,688,912,888,1800,132,121,253
15-03-2018 00:00:00,320,346,666,0,0,0,796,1180,1976,0,0,0,3882,3383,7265,88,459,547,127,310,437,165,101,266,3921,3335,7256,353,279,632,656,616,1272,86,68,154
16-03-2018 00:00:00,310,347,657,0,0,0,648,932,1580,0,0,0,4841,3860,8701,129,858,987,171,468,639,221,143,364,4869,4071,8940,413,292,705,701,691,1392,148,170,318
17-03-2018 00:00:00,430,569,999,0,0,0,575,972,1547,0,0,0,8297,6893,15190,130,961,1091,117,318,435,416,251,667,8024,7699,15723,854,522,1376,1159,1140,2299,342,307,649
18-03-2018 00:00:00,269,318,587,0,0,0,67,123,190,0,0,0,4785,4434,9219,99,624,723,238,570,808,304,167,471,6364,6541,12905,537,341,878,953,1061,2014,200,194,394
19-03-2018 00:00:00,344,363,707,0,0,0,969,1056,2025,0,0,0,1349,912,2261,36,232,268,641,1444,2085,209,142,351,3949,3072,7021,407,274,681,688,750,1438,110,126,236
20-03-2018 00:00:00,356,397,753,0,0,0,200,305,505,0,0,0,3913,3590,7503,65,293,358,275,735,1010,182,118,300,4142,3536,7678,409,317,726,865,755,1620,128,116,244
21-03-2018 00:00:00,323,339,662,0,0,0,673,822,1495,0,0,0,6731,5167,11898,132,940,1072,152,391,543,111,111,222,5418,4512,9930,452,348,800,765,727,1492,169,150,319
22-03-2018 00:00:00,302,346,648,0,0,0,787,1018,1805,0,0,0,4248,3698,7946,98,897,995,168,452,620,190,115,305,4542,3742,8284,452,327,779,590,572,1162,146,138,284
23-03-2018 00:00:00,249,262,511,0,0,0,924,1346,2270,0,0,0,3758,3621,7379,75,536,611,151,501,652,283,182,465,4406,4062,8468,414,324,738,617,559,1176,80,81,161
24-03-2018 00:00:00,224,269,493,0,0,0,765,1034,1799,0,0,0,4122,3893,8015,46,319,365,116,405,521,173,120,293,4906,4342,9248,317,216,533,146,168,314,22,17,39
25-03-2018 00:00:00,422,506,928,0,0,0,342,768,1110,0,0,0,4259,4415,8674,111,552,663,164,523,687,303,196,499,5815,6048,11863,534,359,893,807,795,1602,195,197,392
26-03-2018 00:00:00,162,185,347,0,0,0,1004,1289,2293,0,0,0,2782,2556,5338,76,382,458,171,435,606,140,74,214,3305,2759,6064,311,243,554,416,451,867,54,68,122
27-03-2018 00:00:00,353,360,713,0,0,0,780,1093,1873,0,0,0,3115,2636,5751,65,587,652,150,485,635,155,87,242,2927,2419,5346,291,205,496,745,704,1449,141,130,271
28-03-2018 00:00:00,327,350,677,0,0,0,610,860,1470,0,0,0,3125,2900,6025,71,528,599,138,338,476,150,106,256,2718,1805,4523,234,144,378,219,179,398,41,34,75
29-03-2018 00:00:00,205,211,416,0,0,0,903,1288,2191,0,0,0,1743,1741,3484,68,372,440,168,423,591,49,28,77,2577,1877,4454,180,150,330,369,295,664,50,39,89
30-03-2018 00:00:00,362,397,759,0,0,0,871,1418,2289,0,0,0,4270,3664,7934,61,463,524,212,460,672,254,183,437,5768,4673,10441,515,353,868,926,868,1794,138,142,280
31-03-2018 00:00:00,486,671,1157,0,0,0,467,876,1343,0,0,0,7133,6258,13391,97,762,859,17,135,152,521,358,879,8131,7864,15995,868,592,1460,1307,1174,2481,341,303,644
01-04-2018 00:00:00,397,542,939,0,0,0,543,939,1482,0,0,0,5697,5762,11459,66,523,589,338,845,1183,17,15,32,105,53,158,9,5,14,1143,1158,2301,262,302,564
02-04-2018 00:00:00,382,431,813,0,0,0,722,1307,2029,0,0,0,3782,3633,7415,77,415,492,587,1615,2202,259,155,414,3079,2822,5901,347,291,638,809,702,1511,112,140,252
03-04-2018 00:00:00,417,512,929,0,0,0,770,1393,2163,0,0,0,3570,3655,7225,81,423,504,3,22,25,218,146,364,1551,1084,2635,159,137,296,746,654,1400,141,148,289
04-04-2018 00:00:00,383,464,847,0,0,0,648,1440,2088,0,0,0,4015,4003,8018,87,429,516,182,518,700,243,170,413,4370,3673,8043,525,362,887,747,629,1376,126,114,240
05-04-2018 00:00:00,428,509,937,0,0,0,64,215,279,0,0,0,4566,4223,8789,87,471,558,208,646,854,359,194,553,4530,3528,8058,508,342,850,918,802,1720,194,179,373
06-04-2018 00:00:00,361,408,769,0,0,0,1039,1727,2766,0,0,0,3893,3357,7250,85,713,798,242,644,886,124,52,176,4636,3927,8563,479,373,852,341,309,650,67,57,124
07-04-2018 00:00:00,10,16,26,0,0,0,650,1265,1915,0,0,0,4643,4591,9234,80,578,658,270,657,927,13,3,16,2988,2834,5822,221,172,393,795,735,1530,178,206,384
08-04-2018 00:00:00,600,812,1412,0,0,0,345,903,1248,0,0,0,5580,5390,10970,0,0,0,177,520,697,1,0,1,5659,6303,11962,5,3,8,20,11,31,0,0,0
09-04-2018 00:00:00,408,483,891,0,0,0,681,1367,2048,0,0,0,3945,3480,7425,0,0,0,62,71,133,0,0,0,3846,3075,6921,0,0,0,915,756,1671,0,0,0
10-04-2018 00:00:00,420,527,947,0,0,0,372,836,1208,0,0,0,3780,3558,7338,0,0,0,534,534,1068,0,0,0,4784,4077,8861,0,0,0,929,814,1743,0,0,0
11-04-2018 00:00:00,232,271,503,211,170,381,462,940,1402,108,101,209,3467,2606,6073,0,0,0,803,803,1606,183,187,370,4340,3298,7638,0,0,0,766,718,1484,0,0,0
12-04-2018 00:00:00,238,304,542,260,254,514,699,1364,2063,150,115,265,2842,2796,5638,431,386,817,509,707,1216,435,455,890,4023,2860,6883,593,551,1144,721,674,1395,374,386,760
13-04-2018 00:00:00,250,265,515,203,229,432,886,1546,2432,142,124,266,4097,3617,7714,649,738,1387,256,645,901,526,511,1037,3986,3370,7356,660,684,1344,725,699,1424,390,433,823
14-04-2018 00:00:00,309,387,696,459,466,925,544,1314,1858,202,168,370,7445,6423,13868,951,983,1934,348,802,1150,807,824,1631,7306,6893,14199,1023,1031,2054,829,893,1722,702,765,1467
15-04-2018 00:00:00,228,259,487,521,587,1108,475,1004,1479,200,195,395,6364,5868,12232,934,955,1889,570,1077,1647,731,710,1441,9769,8803,18572,1033,1084,2117,1082,1103,2185,878,943,1821
16-04-2018 00:00:00,233,239,472,180,191,371,745,1402,2147,126,109,235,3442,2894,6336,502,490,992,1481,3616,5097,349,348,697,4872,3619,8491,463,441,904,605,617,1222,254,312,566
17-04-2018 00:00:00,261,295,556,212,236,448,726,1493,2219,169,144,313,3885,3245,7130,547,603,1150,1976,7498,9474,417,400,817,4716,3747,8463,561,564,1125,697,647,1344,334,428,762
18-04-2018 00:00:00,239,252,491,197,194,391,752,1447,2199,122,101,223,3313,2615,5928,521,564,1085,376,1063,1439,356,390,746,4899,3835,8734,495,563,1058,620,649,1269,357,389,746
19-04-2018 00:00:00,222,277,499,234,243,477,814,1370,2184,136,107,243,3664,2818,6482,238,319,557,3,1156,1159,237,195,432,5081,3745,8826,507,549,1056,708,656,1364,354,408,762
20-04-2018 00:00:00,219,227,446,146,149,295,1005,1600,2605,116,85,201,3949,3546,7495,396,420,816,201,1062,1263,229,221,450,5157,3620,8777,463,442,905,342,301,643,277,263,540
21-04-2018 00:00:00,153,149,302,278,354,632,892,1379,2271,125,83,208,6813,6639,13452,623,649,1272,1,516,517,332,341,673,8717,6719,15436,665,632,1297,469,432,901,420,535,955
22-04-2018 00:00:00,218,249,467,485,468,953,702,1109,1811,210,193,403,6471,6186,12657,855,963,1818,165,1396,1561,806,779,1585,9793,9246,19039,887,1004,1891,951,957,1908,721,738,1459
23-04-2018 00:00:00,160,202,362,575,580,1155,816,1219,2035,187,178,365,6892,6343,13235,808,945,1753,186,551,737,621,607,1228,8627,8180,16807,939,1048,1987,895,938,1833,761,758,1519
24-04-2018 00:00:00,246,254,500,219,228,447,927,1356,2283,146,124,270,3623,3138,6761,515,579,1094,13,449,462,381,353,734,4360,3523,7883,532,588,1120,641,566,1207,379,358,737
25-04-2018 00:00:00,221,229,450,256,265,521,999,1430,2429,158,103,261,3624,2842,6466,535,594,1129,215,678,893,398,420,818,4921,3771,8692,570,571,1141,675,636,1311,360,380,740
26-04-2018 00:00:00,233,241,474,246,279,525,631,1074,1705,165,104,269,3782,3032,6814,605,634,1239,625,1887,2512,420,428,848,4849,3784,8633,598,597,1195,658,612,1270,356,365,721
27-04-2018 00:00:00,184,169,353,216,239,455,851,1419,2270,159,115,274,3698,3228,6926,569,577,1146,1,354,355,430,435,865,5826,4735,10561,620,588,1208,597,565,1162,341,388,729
28-04-2018 00:00:00,170,197,367,403,422,825,775,1206,1981,182,125,307,5846,5431,11277,726,813,1539,105,472,577,314,284,598,8089,7220,15309,764,791,1555,714,674,1388,564,653,1217
29-04-2018 00:00:00,141,183,324,587,607,1194,577,955,1532,169,147,316,7117,5894,13011,855,899,1754,316,891,1207,581,591,1172,9120,8259,17379,828,937,1765,853,880,1733,713,764,1477
30-04-2018 00:00:00,200,200,400,275,252,527,931,1354,2285,66,18,84,3538,3042,6580,546,632,1178,208,718,926,419,438,857,4626,3750,8376,578,591,1169,626,523,1149,334,387,721
01-05-2018 00:00:00,234,273,507,536,573,1109,611,1012,1623,232,171,403,6640,6444,13084,564,666,1230,188,656,844,415,402,817,7834,7684,15518,831,879,1710,1034,1084,2118,803,891,1694
02-05-2018 00:00:00,210,200,410,236,245,481,850,1215,2065,142,104,246,3073,2648,5721,533,528,1061,0,279,279,369,409,778,4075,3217,7292,416,389,805,618,531,1149,324,399,723
03-05-2018 00:00:00,236,329,565,227,216,443,1357,1899,3256,163,120,283,3323,2894,6217,561,556,1117,145,767,912,444,433,877,4650,3511,8161,546,585,1131,765,695,1460,367,422,789
04-05-2018 00:00:00,161,168,329,179,200,379,954,1586,2540,100,85,185,3387,3005,6392,440,512,952,313,1134,1447,312,298,610,4462,3495,7957,494,517,1011,490,461,951,278,284,562
05-05-2018 00:00:00,166,182,348,324,347,671,651,1336,1987,165,130,295,5516,5289,10805,765,837,1602,0,368,368,484,506,990,7321,6712,14033,801,805,1606,703,698,1401,478,540,1018
06-05-2018 00:00:00,83,793,876,415,427,842,520,906,1426,75,44,119,6398,5844,12242,504,517,1021,198,557,755,414,383,797,5981,5476,11457,554,546,1100,647,639,1286,306,328,634
07-05-2018 00:00:00,238,229,467,159,160,319,801,1341,2142,95,61,156,4473,3946,8419,343,378,721,1,305,306,240,231,471,3887,3208,7095,381,380,761,449,413,862,193,193,386
08-05-2018 00:00:00,209,206,415,246,229,475,798,1345,2143,147,115,262,3155,2692,5847,444,534,978,3,242,245,392,378,770,4610,3371,7981,461,507,968,607,569,1176,309,317,626
09-05-2018 00:00:00,164,183,347,237,240,477,926,1469,2395,171,118,289,3112,2780,5892,505,569,1074,123,577,700,404,383,787,4585,3458,8043,535,601,1136,578,536,1114,359,383,742
10-05-2018 00:00:00,197,203,400,238,253,491,842,1408,2250,51,16,67,2898,2741,5639,514,589,1103,85,726,811,425,407,832,4521,3633,8154,562,582,1144,562,542,1104,334,350,684
11-05-2018 00:00:00,177,156,333,155,166,321,806,1393,2199,88,55,143,2041,1615,3656,265,315,580,0,783,783,207,191,398,3226,2475,5701,265,291,556,435,442,877,168,204,372
12-05-2018 00:00:00,145,173,318,354,380,734,767,1312,2079,159,124,283,5504,5273,10777,467,517,984,105,401,506,419,432,851,6434,5616,12050,587,591,1178,477,525,1002,437,493,930
13-05-2018 00:00:00,212,219,431,279,312,591,560,989,1549,255,144,399,5442,5306,10748,763,933,1696,100,357,457,695,751,1446,7863,7052,14915,865,973,1838,891,907,1798,622,608,1230
14-05-2018 00:00:00,210,168,378,225,239,464,1060,1391,2451,126,98,224,3131,2453,5584,433,476,909,33,338,371,360,314,674,4065,3275,7340,460,474,934,463,458,921,310,340,650
15-05-2018 00:00:00,234,240,474,264,304,568,975,1319,2294,130,101,231,2785,2237,5022,538,557,1095,65,485,550,380,365,745,4108,3381,7489,546,538,1084,524,476,1000,334,395,729
16-05-2018 00:00:00,181,176,357,195,210,405,892,1399,2291,136,137,273,2318,1773,4091,398,457,855,0,256,256,319,324,643,2914,2212,5126,374,395,769,448,461,909,267,264,531
17-05-2018 00:00:00,199,219,418,230,233,463,924,1453,2377,145,87,232,2013,1479,3492,417,420,837,0,340,340,318,338,656,3127,2349,5476,562,585,1147,508,498,1006,378,399,777
18-05-2018 00:00:00,172,174,346,241,227,468,910,1506,2416,127,108,235,2921,2346,5267,429,462,891,0,433,433,376,345,721,4167,3235,7402,475,506,981,570,599,1169,333,357,690
19-05-2018 00:00:00,139,141,280,343,360,703,778,1316,2094,191,121,312,2262,2486,4748,642,672,1314,0,226,226,434,551,985,5122,5271,10393,648,652,1300,510,541,1051,486,454,940
20-05-2018 00:00:00,122,180,302,390,403,793,600,994,1594,131,95,226,3245,2659,5904,620,632,1252,0,294,294,421,433,854,5605,4576,10181,643,660,1303,633,637,1270,501,545,1046
21-05-2018 00:00:00,165,214,379,223,199,422,860,1248,2108,116,83,199,2209,1786,3995,407,426,833,0,273,273,312,308,620,3342,2464,5806,422,436,858,466,437,903,270,311,581
22-05-2018 00:00:00,214,205,419,222,227,449,827,1275,2102,131,105,236,2252,1839,4091,401,427,828,1,263,264,404,344,748,3393,2612,6005,420,449,869,487,487,974,304,299,603
23-05-2018 00:00:00,207,245,452,204,211,415,821,1277,2098,135,94,229,1476,1301,2777,444,435,879,4,351,355,349,369,718,3530,2632,6162,445,426,871,513,449,962,319,409,728
24-05-2018 00:00:00,178,203,381,272,248,520,762,1228,1990,162,117,279,2255,1561,3816,450,447,897,53,546,599,340,326,666,3502,2736,6238,425,436,861,633,598,1231,326,347,673
25-05-2018 00:00:00,198,194,392,163,172,335,677,1219,1896,105,82,187,2637,1894,4531,408,373,781,100,526,626,277,284,561,4427,3503,7930,475,481,956,537,522,1059,242,251,493
26-05-2018 00:00:00,157,179,336,254,253,507,585,1015,1600,148,117,265,2907,2349,5256,450,426,876,0,295,295,334,343,677,5198,4165,9363,429,443,872,611,622,1233,339,361,700
27-05-2018 00:00:00,138,206,344,430,471,901,573,975,1548,113,99,212,3182,2515,5697,588,623,1211,78,433,511,548,544,1092,5624,5071,10695,653,673,1326,763,778,1541,497,543,1040
28-05-2018 00:00:00,193,200,393,267,281,548,934,1316,2250,129,112,241,2361,2022,4383,376,400,776,67,401,468,282,295,577,3324,2641,5965,384,401,785,520,466,986,269,302,571
29-05-2018 00:00:00,219,239,458,277,267,544,921,1360,2281,158,116,274,2451,2006,4457,463,441,904,3,249,252,111,111,222,3461,2682,6143,453,447,900,423,418,841,327,354,681
30-05-2018 00:00:00,145,169,314,228,221,449,801,1273,2074,135,102,237,2410,1695,4105,449,452,901,1,379,380,263,316,579,3278,2683,5961,408,403,811,495,521,1016,255,309,564
31-05-2018 00:00:00,136,162,298,255,240,495,873,1248,2121,173,144,317,2453,1959,4412,469,507,976,35,359,394,360,371,731,3655,2870,6525,448,488,936,546,534,1080,379,409,788
01-06-2018 00:00:00,118,135,253,223,218,441,769,1358,2127,153,134,287,2436,1938,4374,547,533,1080,0,342,342,408,395,803,4375,3539,7914,565,554,1119,550,551,1101,352,406,758
02-06-2018 00:00:00,112,164,276,336,344,680,706,1246,1952,170,115,285,2808,2288,5096,684,624,1308,0,20,20,147,154,301,6030,5452,11482,640,646,1286,550,542,1092,510,555,1065
03-06-2018 00:00:00,121,174,295,430,451,881,574,971,1545,182,237,419,3381,2851,6232,853,985,1838,0,234,234,781,673,1454,6280,5557,11837,847,1029,1876,635,610,1245,795,653,1448
04-06-2018 00:00:00,182,195,377,238,242,480,920,1335,2255,152,127,279,2089,1763,3852,427,425,852,128,542,670,338,335,673,3413,2845,6258,419,448,867,518,490,1008,304,305,609
05-06-2018 00:00:00,185,204,389,245,247,492,890,1331,2221,201,144,345,2056,1640,3696,429,474,903,0,207,207,363,326,689,3606,2818,6424,453,480,933,527,502,1029,401,476,877
06-06-2018 00:00:00,124,151,275,215,208,423,868,1366,2234,188,109,297,2024,1687,3711,464,531,995,93,660,753,354,375,729,3583,2740,6323,499,489,988,496,475,971,366,456,822
07-06-2018 00:00:00,169,213,382,237,218,455,857,1340,2197,65,33,98,1943,1596,3539,469,508,977,0,498,498,391,360,751,3553,2693,6246,465,511,976,478,418,896,331,364,695
08-06-2018 00:00:00,132,157,289,195,188,383,800,1372,2172,148,116,264,3186,2029,5215,536,537,1073,2,374,376,445,410,855,4488,3477,7965,503,546,1049,409,411,820,311,361,672
09-06-2018 00:00:00,132,155,287,254,283,537,718,1230,1948,139,104,243,2129,1785,3914,456,486,942,0,170,170,324,317,641,4352,3691,8043,128,114,242,467,414,881,388,412,800
10-06-2018 00:00:00,105,145,250,348,338,686,587,990,1577,149,107,256,2427,2098,4525,598,573,1171,1,480,481,450,411,861,4753,4317,9070,513,527,1040,458,416,874,386,419,805
11-06-2018 00:00:00,126,125,251,222,218,440,656,1169,1825,144,132,276,1965,1773,3738,382,392,774,0,201,201,347,314,661,3857,2965,6822,404,391,795,323,288,611,258,306,564
12-06-2018 00:00:00,130,162,292,220,217,437,911,1328,2239,148,120,268,1762,1465,3227,254,288,542,7,617,624,348,337,685,3381,2689,6070,427,480,907,390,331,721,344,353,697
13-06-2018 00:00:00,111,109,220,196,216,412,618,1096,1714,167,132,299,2160,1789,3949,402,409,811,162,416,578,348,331,679,3913,3009,6922,417,418,835,355,335,690,259,308,567
14-06-2018 00:00:00,74,60,134,194,218,412,362,686,1048,119,75,194,1570,1175,2745,319,316,635,51,299,350,278,275,553,3370,2975,6345,421,376,797,674,681,1355,167,183,350
15-06-2018 00:00:00,57,64,121,103,117,220,271,761,1032,62,47,109,2876,2409,5285,464,492,956,1,204,205,356,364,720,7942,7445,15387,522,566,1088,308,296,604,199,223,422
16-06-2018 00:00:00,63,87,150,135,138,273,364,1001,1365,92,56,148,3854,3122,6976,560,542,1102,0,185,185,473,456,929,9378,8875,18253,564,625,1189,450,435,885,289,316,605
17-06-2018 00:00:00,95,93,188,246,253,499,263,842,1105,107,96,203,3262,2565,5827,530,544,1074,52,231,283,521,450,971,7975,7232,15207,542,585,1127,453,423,876,395,427,822
18-06-2018 00:00:00,107,116,223,202,180,382,568,1052,1620,122,94,216,2268,2281,4549,494,488,982,0,167,167,303,318,621,5126,4148,9274,542,572,1114,469,394,863,293,323,616
19-06-2018 00:00:00,125,120,245,153,175,328,741,1162,1903,104,100,204,1999,1524,3523,386,419,805,5,154,159,242,269,511,4133,3295,7428,409,463,872,390,362,752,254,266,520
20-06-2018 00:00:00,107,92,199,227,224,451,718,1255,1973,145,128,273,3472,3308,6780,501,579,1080,1,176,177,398,360,758,5759,4461,10220,560,588,1148,529,453,982,348,372,720
21-06-2018 00:00:00,108,79,187,235,225,460,779,1368,2147,167,131,298,3791,11016,14807,245,311,556,7,188,195,188,180,368,9504,7285,16789,459,525,984,353,310,663,285,297,582
22-06-2018 00:00:00,106,95,201,240,245,485,742,1266,2008,163,136,299,1813,2187,4000,531,544,1075,1,164,165,472,420,892,4745,3931,8676,535,541,1076,448,395,843,424,428,852
23-06-2018 00:00:00,96,80,176,313,346,659,651,1124,1775,172,133,305,3900,2213,6113,548,586,1134,0,128,128,352,401,753,5997,5052,11049,642,648,1290,443,370,813,487,474,961
24-06-2018 00:00:00,103,107,210,316,340,656,228,461,689,150,143,293,2411,2264,4675,435,510,945,0,160,160,487,417,904,4425,4029,8454,500,574,1074,412,349,761,370,389,759
25-06-2018 00:00:00,100,108,208,293,281,574,553,826,1379,117,100,217,2410,2181,4591,432,438,870,16,134,150,363,364,727,4747,3783,8530,543,555,1098,519,431,950,354,353,707
26-06-2018 00:00:00,151,157,308,259,266,525,645,895,1540,193,120,313,2676,2669,5345,397,414,811,18,184,202,368,382,750,4555,3849,8404,624,663,1287,481,429,910,395,494,889
27-06-2018 00:00:00,91,91,182,200,189,389,358,774,1132,164,132,296,2176,2109,4285,505,505,1010,8,140,148,403,384,787,4544,3778,8322,482,486,968,454,360,814,358,382,740
28-06-2018 00:00:00,111,114,225,223,232,455,728,1171,1899,114,94,208,3286,3014,6300,442,437,879,3,187,190,325,312,637,4696,3583,8279,487,484,971,369,292,661,310,364,674
29-06-2018 00:00:00,85,70,155,206,216,422,656,1200,1856,126,106,232,2782,2803,5585,557,536,1093,47,336,383,443,383,826,4127,4161,8288,595,531,1126,309,233,542,376,381,757
30-06-2018 00:00:00,81,89,170,267,287,554,409,1002,1411,179,145,324,4091,3586,7677,597,586,1183,0,114,114,461,422,883,4892,5383,10275,620,600,1220,450,318,768,422,457,879
01-07-2018 00:00:00,81,89,170,298,325,623,395,775,1170,156,111,267,4026,3198,7224,658,688,1346,70,301,371,528,506,1034,5545,6417,11962,730,734,1464,507,442,949,503,533,1036
02-07-2018 00:00:00,84,85,169,229,238,467,604,1063,1667,142,121,263,2632,2431,5063,476,553,1029,2,194,196,360,328,688,3447,3548,6995,537,540,1077,419,321,740,282,348,630
03-07-2018 00:00:00,106,117,223,250,260,510,600,1273,1873,150,84,234,3025,2886,5911,491,470,961,9,147,156,370,345,715,3733,3807,7540,582,565,1147,395,304,699,309,418,727
04-07-2018 00:00:00,110,111,221,195,188,383,606,1068,1674,143,104,247,2512,2160,4672,467,486,953,9,129,138,338,330,668,3459,3383,6842,484,505,989,406,338,744,326,363,689
05-07-2018 00:00:00,96,98,194,206,210,416,707,1189,1896,158,145,303,3130,2876,6006,492,485,977,8,235,243,407,355,762,3829,3738,7567,528,483,1011,421,326,747,276,376,652
06-07-2018 00:00:00,93,96,189,154,142,296,552,1067,1619,136,79,215,2762,2619,5381,413,445,858,6,218,224,330,310,640,3549,3501,7050,440,426,866,312,250,562,230,272,502
07-07-2018 00:00:00,85,85,170,210,212,422,451,971,1422,144,110,254,3654,3067,6721,479,491,970,26,213,239,435,448,883,4552,5124,9676,518,520,1038,400,319,719,326,418,744
08-07-2018 00:00:00,39,74,113,267,276,543,396,740,1136,120,96,216,4470,3824,8294,573,611,1184,7,122,129,532,512,1044,5597,6351,11948,622,663,1285,488,389,877,438,459,897
09-07-2018 00:00:00,89,104,193,234,244,478,641,1241,1882,136,98,234,3271,3163,6434,554,562,1116,70,335,405,308,346,654,3818,3671,7489,530,567,1097,402,234,636,271,327,598
10-07-2018 00:00:00,108,124,232,212,207,419,645,1239,1884,170,117,287,2856,2524,5380,591,568,1159,58,279,337,328,355,683,3955,3834,7789,603,613,1216,347,259,606,353,351,704
11-07-2018 00:00:00,122,138,260,169,180,349,623,1257,1880,147,160,307,3348,3232,6580,488,549,1037,27,227,254,411,368,779,4339,4243,8582,530,603,1133,444,331,775,303,330,633
12-07-2018 00:00:00,108,82,190,243,237,480,541,1213,1754,140,108,248,2825,2795,5620,509,543,1052,59,316,375,365,359,724,3727,3820,7547,533,566,1099,357,280,637,327,351,678
13-07-2018 00:00:00,98,92,190,195,190,385,584,1163,1747,126,101,227,3226,3167,6393,441,470,911,54,263,317,313,295,608,3159,3129,6288,493,488,981,274,217,491,280,336,616
14-07-2018 00:00:00,69,71,140,184,192,376,416,867,1283,159,102,261,3797,4408,8205,531,555,1086,86,245,331,437,444,881,4853,5208,10061,634,643,1277,351,278,629,356,400,756
15-07-2018 00:00:00,94,101,195,239,240,479,326,805,1131,95,90,185,4433,4361,8794,555,565,1120,57,275,332,393,397,790,6216,7565,13781,654,650,1304,421,289,710,389,382,771